Location: Unspecified
(0.0000°N, 0.0000°E)
Time: 10:33:15
(UTC+00:00)

Explorer 11/Cluster Stage 4 - Visible Passes

Search period start: 02 September 2015 00:00
Search period end: 12 September 2015 00:00
Orbit: 467 x 1270 km, 28.8° (Epoch: 31 August)

Date Brightness Start Highest point End Pass type
(mag) Time Alt. Az. Time Alt. Az. Time Alt. Az.
09 Sep 9.7 05:12:59 10° N 05:14:34 11° NNE 05:16:33 10° NE visible
09 Sep 8.1 19:52:19 10° SW 19:53:24 17° SW 19:53:24 17° SW visible
10 Sep 9.5 05:03:09 10° N 05:05:48 13° NNE 05:08:55 10° NE visible
10 Sep 7.3 19:43:22 10° SW 19:45:41 31° SW 19:45:41 31° SW visible
11 Sep 9.3 04:53:40 10° N 04:56:59 15° NNE 05:00:53 10° ENE visible
11 Sep 6.3 19:34:30 10° WSW 19:37:58 55° WSW 19:37:58 55° WSW visible
